EW3286 Weather Reports


Display with metric or nautical units.
time (UTC)temp
F
wind
direction
speed
MPH
gust
MPH
rain 1hr
in
rain 24hr
in
rain mn
in
humidity
%
barometer
mb
20260905060028 75 11 0.0 0.0 0.00 0.00 0.00 95 1011.0
20260905054526 75 325 0.0 0.0 0.00 0.00 0.00 95 1011.2
20260905053024 75 338 0.0 0.0 0.00 0.00 0.00 95 1011.1
20260905051527 75 293 0.0 0.0 0.00 0.00 0.00 95 1010.8
20260905050020 76 340 0.0 0.0 0.00 0.00 0.00 95 1010.8
20260905044519 76 355 0.0 0.0 0.00 0.00 0.00 95 1011.0
20260905043016 76 325 0.0 0.0 0.00 0.00 0.00 94 1010.9
20260905041515 77 326 0.0 0.0 0.00 0.00 0.00 94 1011.0
20260905040015 77 320 0.0 0.0 0.00 0.00 0.00 93 1011.0
20260905034518 77 341 0.0 0.0 0.00 0.00 0.00 92 1011.0
20260905033013 78 329 0.0 0.0 0.00 0.00 0.00 91 1010.7
20260905031525 78 321 0.0 0.0 0.00 0.00 0.00 90 1010.4
20260905030023 79 343 0.0 0.0 0.00 0.00 0.00 89 1010.4
20260905024509 80 349 0.0 0.0 0.00 0.00 0.00 86 1010.2
20260905023008 81 342 0.0 0.0 0.00 0.00 0.00 86 1009.9
20260905021507 81 334 0.0 0.0 0.00 0.00 0.00 85 1009.7
20260905020007 81 319 0.0 0.0 0.00 0.00 0.00 85 1009.8
20260905014508 82 311 0.0 0.0 0.00 0.00 0.00 83 1009.5
20260905013005 83 310 0.0 0.0 0.00 0.00 0.00 81 1009.7
20260905011506 84 325 0.0 0.0 0.00 0.00 0.00 80 1009.3
20260905010004 85 340 0.0 0.0 0.00 0.00 0.00 78 1009.2
20260905004506 86 339 0.0 0.0 0.00 0.00 0.00 76 1009.1
20260905003003 87 335 0.0 0.0 0.00 0.00 0.00 74 1009.1
20260905001503 88 332 0.0 0.0 0.00 0.00 0.00 71 1009.1
20260905000003 88 317 0.0 0.0 0.00 0.00 0.00 69 1009.1
20260904234502 89 10 0.0 0.0 0.00 0.00 0.00 67 1009.0
20260904233002 89 326 0.0 0.0 0.00 0.00 0.00 67 1009.1
20260904231501 90 19 0.0 0.0 0.00 0.00 0.00 65 1008.9
20260904230101 90 325 0.0 0.0 0.00 0.00 0.00 63 1008.8
20260904224600 90 26 0.0 0.0 0.00 0.00 0.00 64 1008.9
20260904223057 91 33 0.0 0.0 0.00 0.00 0.00 61 1008.6
20260904221557 91 10 0.0 0.0 0.00 0.00 0.00 61 1008.4
20260904220056 91 312 0.0 0.0 0.00 0.00 0.00 61 1008.6
20260904214552 91 27 0.0 0.0 0.00 0.00 0.00 61 1008.7
20260904213048 91 321 0.0 0.0 0.00 0.00 0.00 58 1008.7
20260904211544 92 343 0.0 0.0 0.00 0.00 0.00 62 1008.9
20260904210045 92 291 0.0 0.0 0.00 0.00 0.00 60 1008.8
20260904204540 92 326 0.0 0.0 0.00 0.00 0.00 60 1008.9
20260904203035 92 325 0.0 0.0 0.00 0.00 0.00 57 1008.9
20260904201528 92 355 0.0 0.0 0.00 0.00 0.00 59 1008.9
20260904200025 92 349 0.0 0.0 0.00 0.00 0.00 56 1009.0
20260904194519 92 303 0.0 0.0 0.00 0.00 0.00 57 1009.0
20260904193014 91 355 0.0 0.0 0.00 0.00 0.00 59 1009.0
20260904191510 91 5 0.0 0.0 0.00 0.00 0.00 59 1008.9
20260904190107 90 335 0.0 0.0 0.00 0.00 0.00 62 1008.9
20260904184505 90 284 0.0 0.0 0.00 0.00 0.00 63 1009.0
20260904183002 89 325 0.0 0.0 0.00 0.00 0.00 64 1009.0
20260904181610 89 286 0.0 0.0 0.00 0.00 0.00 64 1009.1
20260904180056 88 14 0.0 0.0 0.00 0.00 0.00 65 1009.2
20260904174600 88 345 0.0 0.0 0.00 0.00 0.00 66 1009.2
20260904173052 88 322 0.0 0.0 0.00 0.00 0.00 65 1009.4
20260904171548 87 322 0.0 0.0 0.00 0.00 0.00 69 1009.3
20260904170044 86 318 0.0 0.0 0.00 0.00 0.00 67 1009.4
20260904164545 86 339 0.0 0.0 0.00 0.00 0.00 70 1009.1
20260904163036 85 292 0.0 0.0 0.00 0.00 0.00 72 1009.2
20260904161534 85 302 0.0 0.0 0.00 0.00 0.00 72 1009.1
20260904160027 84 300 0.0 0.0 0.00 0.00 0.00 75 1009.1
20260904154535 82 300 0.0 0.0 0.00 0.00 0.00 76 1008.9
20260904153019 81 300 0.0 0.0 0.00 0.00 0.00 78 1008.8
20260904151514 81 311 0.0 0.0 0.00 0.00 0.00 79 1009.0
20260904150010 80 292 0.0 0.0 0.00 0.00 0.00 80 1008.9
20260904144507 79 286 0.0 0.0 0.00 0.00 0.00 80 1008.8
20260904143002 78 265 0.0 0.0 0.00 0.00 0.00 82 1008.9
20260904141607 77 257 0.0 0.0 0.00 0.00 0.00 85 1008.9
20260904140053 76 266 0.0 0.0 0.00 0.00 0.00 88 1008.7
20260904134558 74 296 0.0 0.0 0.00 0.00 0.00 90 1008.9
20260904133045 73 279 0.0 0.0 0.00 0.00 0.00 93 1009.2
20260904131541 71 277 0.0 0.0 0.00 0.00 0.00 94 1009.2
20260904130036 70 251 0.0 0.0 0.00 0.00 0.00 95 1009.1
20260904124532 69 194 0.0 0.0 0.00 0.00 0.00 94 1008.7
20260904123032 68 194 0.0 0.0 0.00 0.00 0.00 93 1008.6
20260904121526 68 194 0.0 0.0 0.00 0.00 0.00 93 1008.4
20260904120028 69 194 0.0 0.0 0.00 0.00 0.00 93 1008.2
20260904114520 69 194 0.0 0.0 0.00 0.00 0.00 93 1008.1
20260904113019 69 194 0.0 0.0 0.00 0.00 0.00 93 1008.0
20260904111515 69 125 0.0 0.0 0.00 0.00 0.00 91 1007.5
20260904110012 70 125 0.0 0.0 0.00 0.00 0.00 91 1007.5
20260904104511 70 125 0.0 0.0 0.00 0.00 0.00 91 1007.5
20260904103019 70 125 0.0 0.0 0.00 0.00 0.00 90 1007.2
20260904101507 71 125 0.0 0.0 0.00 0.00 0.00 90 1007.3
20260904100013 71 125 0.0 0.0 0.00 0.00 0.00 90 1007.3
20260904094505 71 125 0.0 0.0 0.00 0.00 0.00 90 1007.5
20260904093002 72 125 0.0 0.0 0.00 0.00 0.00 89 1007.5
20260904091600 72 125 0.0 0.0 0.00 0.00 0.00 89 1007.4
20260904090106 73 125 0.0 0.0 0.00 0.00 0.00 88 1007.3
20260904084556 73 125 0.0 0.0 0.00 0.00 0.00 87 1007.2
20260904083056 74 125 0.0 0.0 0.00 0.00 0.00 87 1007.0
20260904081551 74 125 0.0 0.0 0.00 0.00 0.00 86 1007.1
20260904080049 75 125 0.0 0.0 0.00 0.00 0.00 86 1007.2
20260904074549 75 142 0.0 0.0 0.00 0.00 0.00 87 1007.1
20260904073047 75 149 0.0 0.0 0.00 0.00 0.00 87 1007.0
20260904071554 75 127 0.0 0.0 0.00 0.00 0.00 86 1007.0
20260904070043 76 152 0.0 0.0 0.00 0.00 0.00 86 1007.0
20260904064541 76 151 0.0 0.0 0.00 0.00 0.00 86 1006.9
20260904063041 76 99 0.0 0.0 0.00 0.00 0.00 87 1007.1
20260904061541 76 128 0.0 0.0 0.00 0.00 0.00 87 1006.9